K9BM Weather Reports


time (UTC)temp
C
wind
direction
speed
KPH
gust
KPH
rain 1hr
cm
rain 24hr
cm
rain mn
cm
humidity
%
barometer
mb
20260505093005 1 83 4.8 9.7 0.00 0.00 0.00 64 1014.9
20260505092504 1 76 4.8 9.7 0.00 0.00 0.00 63 1014.8
20260505092004 1 71 4.8 9.7 0.00 0.00 0.00 63 1014.8
20260505091005 1 80 1.6 4.8 0.00 0.00 0.00 62 1014.8
20260505090005 1 81 1.6 3.2 0.00 0.00 0.00 62 1014.8
20260505085505 1 81 0.0 3.2 0.00 0.00 0.00 62 1014.7
20260505085005 1 81 1.6 4.8 0.00 0.00 0.00 62 1014.7
20260505084004 1 81 3.2 11.3 0.00 0.00 0.00 60 1014.7
20260505083504 1 80 4.8 11.3 0.00 0.00 0.00 60 1014.6
20260505083005 2 79 8.0 12.9 0.00 0.00 0.00 59 1014.6
20260505082505 2 61 9.7 19.3 0.00 0.00 0.00 58 1014.4
20260505082005 2 52 9.7 19.3 0.00 0.00 0.00 58 1014.3
20260505081505 2 40 9.7 19.3 0.00 0.00 0.00 57 1014.3
20260505081004 3 39 11.3 19.3 0.00 0.00 0.00 55 1014.5
20260505075505 3 33 8.0 16.1 0.00 0.00 0.00 53 1014.3
20260505075005 4 26 8.0 19.3 0.00 0.00 0.00 53 1014.3
20260505074504 4 16 11.3 20.9 0.00 0.00 0.00 52 1014.3
20260505074005 5 24 14.5 20.9 0.00 0.00 0.00 50 1014.2
20260505073504 5 54 4.8 8.0 0.00 0.00 0.00 51 1014.1
20260505073005 5 75 3.2 8.0 0.00 0.00 0.00 49 1013.9
20260505072505 5 81 4.8 8.0 0.00 0.00 0.00 49 1013.8
20260505072004 5 83 4.8 4.8 0.00 0.00 0.00 50 1013.8
20260505071504 5 84 3.2 4.8 0.00 0.00 0.00 50 1013.8
20260505071005 5 84 3.2 8.0 0.00 0.00 0.00 51 1013.9
20260505070005 5 81 4.8 9.7 0.00 0.00 0.00 49 1013.8
20260505065505 5 89 3.2 11.3 0.00 0.00 0.00 49 1013.7
20260505064504 5 89 4.8 9.7 0.00 0.00 0.00 50 1013.7
20260505063504 6 53 1.6 12.9 0.00 0.00 0.00 49 1013.6
20260505062504 6 71 4.8 9.7 0.00 0.00 0.00 49 1013.7
20260505062005 6 79 3.2 4.8 0.00 0.00 0.00 50 1013.7
20260505061505 6 79 3.2 4.8 0.00 0.00 0.00 50 1013.7
20260505061005 6 79 3.2 9.7 0.00 0.00 0.00 50 1013.7
20260505060005 6 67 4.8 11.3 0.00 0.00 0.00 50 1013.6
20260505055504 6 52 8.0 11.3 0.00 0.00 0.00 49 1013.6
20260505055004 6 98 4.8 9.7 0.00 0.00 0.00 51 1013.6
20260505054504 6 83 4.8 19.3 0.00 0.00 0.00 51 1013.5
20260505054004 6 83 6.4 19.3 0.00 0.00 0.00 50 1013.4
20260505053505 6 88 8.0 12.9 0.00 0.00 0.00 52 1013.3
20260505052505 6 42 8.0 16.1 0.00 0.00 0.00 50 1013.3
20260505052005 6 82 6.4 19.3 0.00 0.00 0.00 51 1013.2
20260505051504 6 56 6.4 19.3 0.00 0.00 0.00 50 1013.3
20260505041504 6 54 14.5 29.0 0.00 0.00 0.00 50 1012.9
20260505041005 7 67 14.5 27.4 0.00 0.00 0.00 49 1012.9
20260505040005 7 71 17.7 25.7 0.00 0.00 0.00 50 1012.7
20260505035504 7 69 14.5 25.7 0.00 0.00 0.00 51 1012.6
20260505035004 7 58 14.5 19.3 0.00 0.00 0.00 53 1012.5
20260505034504 7 74 14.5 19.3 0.00 0.00 0.00 53 1012.4
20260505034004 7 78 12.9 19.3 0.00 0.00 0.00 54 1012.3
20260505033505 7 93 12.9 19.3 0.00 0.00 0.00 54 1012.1
20260505033004 7 83 12.9 19.3 0.00 0.00 0.00 54 1012.1
20260505032504 7 80 11.3 19.3 0.00 0.00 0.00 54 1012.0
20260505032004 7 72 9.7 19.3 0.00 0.00 0.00 53 1011.9
20260505031504 7 82 12.9 19.3 0.00 0.00 0.00 53 1011.9
20260505031004 7 69 9.7 19.3 0.00 0.00 0.00 53 1011.8
20260505030004 8 59 8.0 16.1 0.00 0.00 0.00 53 1011.7
20260505025504 8 48 11.3 16.1 0.00 0.00 0.00 52 1011.7
20260505025004 8 53 8.0 14.5 0.00 0.00 0.00 53 1011.6
20260505024504 8 55 8.0 16.1 0.00 0.00 0.00 52 1011.5
20260505023504 8 45 9.7 16.1 0.00 0.00 0.00 51 1011.3
20260505023005 8 47 6.4 9.7 0.00 0.00 0.00 51 1011.3
20260505022504 8 52 4.8 14.5 0.00 0.00 0.00 51 1011.3
20260505022005 8 38 6.4 16.1 0.00 0.00 0.00 50 1011.2
20260505021504 8 32 9.7 19.3 0.00 0.00 0.00 49 1011.2
20260505020004 9 25 9.7 19.3 0.00 0.00 0.00 47 1011.1
20260505015504 9 45 8.0 12.9 0.00 0.00 0.00 45 1011.1
20260505015004 9 63 3.2 11.3 0.00 0.00 0.00 44 1011.0
20260505014504 9 57 6.4 11.3 0.00 0.00 0.00 43 1011.0
20260505014004 9 64 6.4 11.3 0.00 0.00 0.00 43 1010.9
20260505013004 10 101 1.6 4.8 0.00 0.00 0.00 43 1010.8
20260505012504 10 102 3.2 4.8 0.00 0.00 0.00 42 1010.7
20260505012004 10 102 0.0 4.8 0.00 0.00 0.00 43 1010.7
20260505011504 10 102 1.6 4.8 0.00 0.00 0.00 43 1010.7
20260505011004 10 102 3.2 4.8 0.00 0.00 0.00 42 1010.7
20260505010004 10 102 4.8 4.8 0.00 0.00 0.00 42 1010.6
20260505005504 10 99 3.2 4.8 0.00 0.00 0.00 41 1010.6
20260505005004 10 99 1.6 4.8 0.00 0.00 0.00 42 1010.6
20260505004504 10 99 3.2 4.8 0.00 0.00 0.00 42 1010.6
20260505004005 10 99 3.2 4.8 0.00 0.00 0.00 42 1010.6
20260505003005 10 99 6.4 9.7 0.00 0.00 0.00 41 1010.5
20260505002504 10 86 4.8 8.0 0.00 0.00 0.00 41 1010.5
20260505002005 10 81 3.2 8.0 0.00 0.00 0.00 41 1010.4
20260505001004 10 81 4.8 8.0 0.00 0.00 0.00 41 1010.6
20260505000004 10 51 1.6 8.0 0.00 0.00 0.00 40 1010.4
20260504235504 10 51 1.6 8.0 0.00 0.00 0.00 39 1010.4
20260504235004 11 53 3.2 9.7 0.00 0.00 0.00 39 1010.4
20260504234504 11 37 3.2 9.7 0.00 0.00 0.00 39 1010.3
20260504234004 11 57 3.2 11.3 0.00 0.00 0.00 39 1010.2
20260504233505 11 79 4.8 11.3 0.00 0.00 0.00 40 1010.1
20260504232005 11 102 4.8 16.1 0.00 0.00 0.00 39 1010.0
20260504231505 11 100 8.0 16.1 0.00 0.00 0.00 40 1010.0
20260504231005 10 111 8.0 14.5 0.00 0.00 0.00 40 1010.0
20260504230005 10 98 11.3 14.5 0.00 0.00 0.00 42 1010.0
20260504225505 9 85 4.8 16.1 0.00 0.00 0.00 42 1010.0
20260504225005 9 82 9.7 16.1 0.00 0.00 0.00 42 1010.0
20260504224505 9 81 8.0 14.5 0.00 0.00 0.00 42 1009.9
20260504223505 9 32 8.0 14.5 0.00 0.00 0.00 44 1009.8
20260504222505 9 58 8.0 19.3 0.00 0.00 0.00 44 1009.8
20260504222005 9 18 8.0 12.9 0.00 0.00 0.00 45 1009.8
20260504221505 9 58 8.0 16.1 0.00 0.00 0.00 46 1009.9
20260504221005 9 61 9.7 19.3 0.00 0.00 0.00 45 1009.8
20260504220005 9 59 9.7 16.1 0.00 0.00 0.00 45 1009.9
20260504215505 10 55 8.0 16.1 0.00 0.00 0.00 45 1009.9
20260504215005 10 49 8.0 14.5 0.00 0.00 0.00 44 1009.9
20260504214505 10 27 9.7 19.3 0.00 0.00 0.00 45 1010.0
20260504214005 10 9 6.4 19.3 0.00 0.00 0.00 45 1010.0
20260504213505 10 28 12.9 19.3 0.00 0.00 0.00 44 1010.1
20260504212505 9 32 12.9 22.5 0.00 0.00 0.00 46 1010.1
20260504211505 9 22 12.9 19.3 0.00 0.00 0.00 46 1010.2
20260504211006 9 23 11.3 25.7 0.00 0.00 0.00 45 1010.3
20260504205505 9 26 14.5 20.9 0.00 0.00 0.00 46 1010.2
20260504205005 9 2 12.9 20.9 0.00 0.00 0.00 45 1010.2
20260504204505 9 20 11.3 20.9 0.00 0.00 0.00 45 1010.2
20260504204005 9 12 14.5 20.9 0.00 0.00 0.00 45 1010.1
20260504203505 9 0 11.3 24.1 0.00 0.00 0.00 44 1010.0
20260504203005 10 4 17.7 24.1 0.00 0.00 0.00 43 1009.9
20260504202005 9 16 14.5 24.1 0.00 0.00 0.00 45 1010.0
20260504201005 9 1 16.1 25.7 0.00 0.00 0.00 45 1009.9
20260504200005 9 359 14.5 20.9 0.00 0.00 0.00 50 1009.8
20260504195505 9 353 12.9 20.9 0.00 0.00 0.00 51 1009.8
20260504195005 9 355 12.9 19.3 0.00 0.00 0.00 51 1009.7
20260504194505 9 5 12.9 19.3 0.00 0.00 0.00 50 1009.7
20260504194005 10 18 11.3 19.3 0.00 0.00 0.00 49 1009.7
20260504193505 10 13 11.3 19.3 0.00 0.00 0.00 48 1009.7
20260504193005 10 15 9.7 19.3 0.00 0.00 0.00 47 1009.7
20260504192505 10 20 4.8 16.1 0.00 0.00 0.00 47 1009.6
20260504191505 10 23 6.4 19.3 0.00 0.00 0.00 46 1009.7
20260504191005 10 15 14.5 19.3 0.00 0.00 0.00 45 1009.6
20260504190005 10 60 3.2 16.1 0.00 0.00 0.00 43 1009.6
20260504185505 11 58 8.0 19.3 0.00 0.00 0.00 43 1009.5
20260504185005 11 23 4.8 19.3 0.00 0.00 0.00 42 1009.4
20260504184505 11 57 6.4 20.9 0.00 0.00 0.00 41 1009.4
20260504183505 10 16 11.3 22.5 0.00 0.00 0.00 43 1009.5
20260504183005 10 33 11.3 22.5 0.00 0.00 0.00 44 1009.4
20260504182504 10 337 9.7 22.5 0.00 0.00 0.00 43 1009.4
20260504182005 11 1 14.5 32.2 0.00 0.00 0.00 44 1009.5
20260504181505 10 26 14.5 32.2 0.00 0.00 0.00 46 1009.5
20260504181005 10 332 8.0 19.3 0.00 0.00 0.00 45 1009.5
20260504180005 10 2 8.0 20.9 0.00 0.00 0.00 45 1009.6
20260504175505 10 352 11.3 19.3 0.00 0.00 0.00 46 1009.7
20260504174505 10 15 9.7 19.3 0.00 0.00 0.00 44 1009.7
20260504174004 10 42 8.0 19.3 0.00 0.00 0.00 44 1009.8
20260504173505 10 25 8.0 22.5 0.00 0.00 0.00 44 1009.8
20260504172505 10 54 11.3 19.3 0.00 0.00 0.00 45 1009.7
20260504171505 10 46 9.7 22.5 0.00 0.00 0.00 46 1009.7
20260504171005 10 37 14.5 22.5 0.00 0.00 0.00 46 1009.8
20260504151005 8 85 14.5 24.1 0.00 0.00 0.00 54 1010.0
20260504141005 7 101 11.3 16.1 0.00 0.00 0.00 54 1010.1